Voltar ao catálogo

GITAI-SC1

AtivoCiênciaVLEO
NORAD 62388·PAYLOAD·🇺🇸 United States

Lançado Dec 21, 2024 de Vandenberg Space Force Base

Loading…

Próximas Passagens (próximas 24 horas)

TLE

AtualizadoSource: Space-Track

Época: Sep 14, 2026, 04:41 UTC

1 62388U 24247M   26257.19516555  .00003620  00000-0  16711-3 0  9995
2 62388  45.0002 190.0629 0000497 259.5607 100.5218 15.22121661 96291

Acompanhe GITAI-SC1 em tempo real com AllMySat

Download on the App Store